Hamilton Island Observation History
Time Wind Speed Temp Pressure Rel. Hum Rain
05/09:00pm SE 23-27 kts 20.5°c 1021.5 hPa 89% 7.0mm
05/08:30pm SE 23-26 kts 20.2°c 1021.5 hPa 90% 7.0mm
05/08:25pm SE 22-25 kts 20.1°c 1021.6 hPa 91% 7.0mm
05/08:04pm SE 25-31 kts 20.0°c 1021.6 hPa 95% 6.6mm
05/08:00pm SE 22-31 kts 20.0°c 1021.6 hPa 93% 6.0mm
05/07:59pm SE 21-31 kts 20.3°c 1021.5 hPa 93% 6.0mm
05/07:30pm SE 19-24 kts 19.9°c 1021.4 hPa 98% 6.0mm
05/07:22pm SE 16-19 kts 19.6°c 1021.5 hPa 98% 6.0mm
05/07:18pm SE 16-19 kts 19.4°c 1021.4 hPa 98% 6.0mm
05/07:00pm ESE 25-30 kts 19.2°c 1021.1 hPa 97% 5.8mm
05/06:55pm SE 23-27 kts 19.4°c 1021.1 hPa 97% 5.4mm
05/06:51pm SE 22-27 kts 19.5°c 1021.0 hPa 96% 5.0mm
05/06:32pm SE 21-25 kts 19.1°c 1020.9 hPa 97% 5.0mm
05/06:31pm SE 21-25 kts 18.9°c 1020.9 hPa 97% 5.0mm
05/06:30pm SE 21-25 kts 19.0°c 1020.9 hPa 97% 5.0mm
05/06:04pm SE 21-31 kts 19.4°c 1020.8 hPa 99% 4.4mm
05/06:00pm SE 20-23 kts 19.6°c 1020.7 hPa 99% 4.2mm
05/05:30pm SE 21-24 kts 19.7°c 1020.3 hPa 96% 2.0mm
05/05:27pm SE 21-24 kts 19.5°c 1020.3 hPa 96% 2.0mm
05/05:25pm SE 21-24 kts 19.5°c 1020.2 hPa 96% 2.0mm
05/05:24pm SE 21-24 kts 19.6°c 1020.2 hPa 96% 2.0mm
05/05:00pm SE 24-27 kts 19.8°c 1020.0 hPa 97% 1.8mm
05/04:55pm SE 24-27 kts 19.8°c 1019.8 hPa 96% 1.0mm
05/04:30pm SSE 22-27 kts 19.9°c 1019.8 hPa 97% 1.0mm
05/04:17pm SE 26-30 kts 19.8°c 1019.7 hPa 97% 1.0mm
05/04:00pm SSE 25-30 kts 19.7°c 1019.6 hPa 97% 0.8mm
05/03:50pm SSE 26-32 kts 19.7°c 1019.6 hPa 96% 0.2mm
05/03:30pm SSE 29-33 kts 20.2°c 1019.2 hPa 92% 0.2mm
05/03:00pm SSE 27-31 kts 20.3°c 1019.4 hPa 90% 0.2mm
05/02:30pm SSE 27-33 kts 20.1°c 1019.4 hPa 91% 0.2mm
05/02:19pm SSE 29-33 kts 20.6°c 1019.5 hPa 92% 0.2mm
05/02:00pm SSE 30-34 kts 20.3°c 1019.6 hPa 91% 0.2mm
05/01:41pm SSE 28-32 kts 20.1°c 1019.7 hPa 94% 0.2mm
05/01:30pm SSE 28-33 kts 19.6°c 1019.9 hPa 95% 0.2mm
05/01:25pm SSE 27-33 kts 19.8°c 1020.0 hPa 96% 0.2mm
05/01:00pm SSE 26-32 kts 20.5°c 1020.4 hPa 91% 0.2mm
05/12:30pm SSE 23-29 kts 20.4°c 1020.8 hPa 88% 0.2mm
05/12:00pm SSE 25-30 kts 20.0°c 1021.2 hPa 88% 0.2mm
05/11:30am SSE 23-28 kts 20.4°c 1021.4 hPa 89% 0.0mm
05/11:00am SSE 23-29 kts 20.1°c 1021.6 hPa 91% 0.0mm
05/10:30am SSE 22-29 kts 20.0°c 1022.0 hPa 89% 0.0mm
05/10:24am SSE 22-28 kts 20.2°c 1022.1 hPa 89% 0.0mm
05/10:16am SSE 23-27 kts 20.6°c 1022.2 hPa 87% 0.0mm
05/10:00am SE 23-28 kts 22.3°c 1022.2 hPa 81% 0.0mm
05/09:30am SE 27-31 kts 21.5°c 1021.9 hPa 83% 0.0mm
05/09:16am SE 27-32 kts 21.4°c 1021.8 hPa 86% 0.0mm
05/09:00am SSE 25-32 kts 20.9°c 1021.9 hPa 97% 5.8mm
05/08:38am SSE 23-28 kts 19.5°c 1021.8 hPa 97% 5.8mm
05/08:30am SSE 23-32 kts 19.6°c 1021.6 hPa 97% 5.8mm
05/08:19am SSE 23-28 kts 19.4°c 1021.5 hPa 95% 5.6mm
05/08:18am SSE 23-28 kts 19.4°c 1021.5 hPa 94% 5.6mm
05/08:15am SSE 23-28 kts 19.7°c 1021.4 hPa 94% 5.4mm
05/08:00am SSE 23-30 kts 20.0°c 1021.3 hPa 96% 5.4mm
05/07:57am SSE 23-30 kts 20.0°c 1021.3 hPa 95% 5.4mm
05/07:40am SSE 22-27 kts 20.1°c 1021.2 hPa 92% 5.4mm
05/07:30am SE 21-25 kts 20.6°c 1020.9 hPa 87% 5.4mm
05/07:12am ESE 23-28 kts 20.4°c 1020.6 hPa 90% 5.4mm
05/07:00am ESE 24-35 kts 19.4°c 1020.6 hPa 93% 5.4mm
05/06:59am ESE 25-35 kts 19.5°c 1020.6 hPa 93% 5.4mm
05/06:54am ESE 29-35 kts 19.4°c 1020.5 hPa 95% 5.4mm
05/06:47am ESE 29-35 kts 20.0°c 1020.3 hPa 93% 4.8mm
05/06:42am ESE 30-37 kts 19.6°c 1020.1 hPa 90% 4.8mm
05/06:30am ESE 24-31 kts 20.0°c 1020.1 hPa 93% 4.8mm
05/06:27am ESE 24-31 kts 19.8°c 1020.0 hPa 94% 4.8mm
05/06:14am SE 23-26 kts 20.8°c 1020.0 hPa 92% 2.2mm
05/06:00am SE 22-25 kts 21.4°c 1019.9 hPa 85% 1.8mm
05/05:30am SE 23-28 kts 21.1°c 1019.5 hPa 88% 1.8mm
05/05:00am ESE 26-30 kts 21.8°c 1019.1 hPa 79% 1.8mm
05/04:30am ESE 21-25 kts 21.9°c 1019.1 hPa 79% 1.8mm
05/04:00am ESE 21-25 kts 21.9°c 1019.2 hPa 81% 1.8mm
05/03:30am SSE 19-23 kts 20.9°c 1019.3 hPa 90% 1.8mm
05/03:22am SSE 19-23 kts 20.7°c 1019.5 hPa 91% 1.8mm
05/03:00am SE 21-24 kts 21.3°c 1019.5 hPa 83% 1.8mm
05/02:51am SE 21-25 kts 21.1°c 1019.6 hPa 85% 1.8mm
05/02:30am SSE 23-27 kts 20.8°c 1019.6 hPa 95% 1.8mm
05/02:12am SSE 24-28 kts 20.6°c 1019.8 hPa 95% 1.8mm
05/02:00am SSE 24-29 kts 20.7°c 1020.0 hPa 92% 1.8mm
05/01:59am SSE 24-29 kts 20.8°c 1020.0 hPa 92% 1.8mm
05/01:40am SSE 26-30 kts 21.0°c 1020.0 hPa 91% 1.8mm
05/01:30am SSE 25-29 kts 21.2°c 1020.2 hPa 92% 1.8mm
05/01:00am SE 22-26 kts 21.9°c 1020.5 hPa 84% 1.8mm
05/12:30am SE 24-29 kts 22.2°c 1020.6 hPa 72% 1.8mm
05/12:00am SE 24-29 kts 22.0°c 1021.0 hPa 72% 1.8mm
Time Wind Speed Temp Pressure Rel. Hum Rain
04/11:30pm SE 24-29 kts 22.1°c 1021.2 hPa 76% 1.8mm
04/11:00pm SE 23-28 kts 22.0°c 1021.4 hPa 75% 1.8mm
04/10:30pm ESE 23-31 kts 22.2°c 1022.0 hPa 79% 1.8mm
04/10:00pm SE 21-28 kts 21.5°c 1022.0 hPa 85% 1.8mm
04/09:30pm SSE 21-25 kts 21.4°c 1022.3 hPa 89% 1.8mm
04/09:00pm SE 22-25 kts 21.4°c 1022.4 hPa 89% 1.8mm
04/08:30pm SE 24-27 kts 21.4°c 1022.1 hPa 86% 1.8mm
04/08:00pm SE 24-29 kts 21.3°c 1021.9 hPa 86% 1.8mm
04/07:30pm SE 25-31 kts 21.1°c 1021.8 hPa 89% 1.8mm
04/07:16pm ESE 16-26 kts 20.6°c 1021.7 hPa 94% 1.8mm
04/07:00pm SSE 15-19 kts 19.9°c 1021.7 hPa 94% 1.8mm
04/06:30pm SSE 23-27 kts 20.7°c 1021.4 hPa 86% 0.0mm
04/06:00pm SSE 24-29 kts 20.7°c 1021.1 hPa 85% 0.0mm
04/05:30pm SSE 23-27 kts 20.5°c 1020.9 hPa 84% 0.0mm
04/05:00pm SSE 25-29 kts 20.4°c 1020.7 hPa 83% 0.0mm
04/04:30pm SSE 25-28 kts 20.2°c 1020.3 hPa 81% 0.0mm
04/04:00pm SSE 26-29 kts 20.2°c 1020.3 hPa 81% 0.0mm
04/03:30pm SSE 25-29 kts 20.3°c 1020.3 hPa 82% 0.0mm
04/03:00pm SSE 27-31 kts 20.1°c 1020.1 hPa 80% 0.0mm
04/02:30pm SSE 27-31 kts 20.0°c 1020.0 hPa 78% 0.0mm
04/02:00pm SSE 27-32 kts 20.1°c 1020.3 hPa 77% 0.0mm
04/01:30pm SSE 27-31 kts 20.0°c 1020.3 hPa 76% 0.0mm
04/01:00pm SSE 24-28 kts 20.1°c 1020.7 hPa 74% 0.0mm
04/12:30pm SSE 27-31 kts 20.2°c 1021.3 hPa 76% 0.0mm
04/12:00pm SSE 28-32 kts 20.0°c 1021.5 hPa 74% 0.0mm
04/11:30am SSE 27-32 kts 19.6°c 1021.8 hPa 72% 0.0mm
04/11:00am SSE 25-29 kts 19.4°c 1022.1 hPa 71% 0.0mm
04/10:30am SSE 24-28 kts 19.3°c 1022.2 hPa 72% 0.0mm
04/10:00am SSE 25-31 kts 18.8°c 1022.4 hPa 69% 0.0mm
04/09:30am SSE 27-32 kts 18.6°c 1022.3 hPa 67% 0.0mm
04/09:00am SSE 26-31 kts 18.7°c 1022.2 hPa 69% 0.0mm
04/08:30am SSE 26-31 kts 18.6°c 1022.1 hPa 68% 0.0mm
04/08:00am SSE 26-30 kts 18.2°c 1021.7 hPa 68% 0.0mm
04/07:30am SSE 26-30 kts 18.0°c 1021.4 hPa 66% 0.0mm
04/07:00am SSE 25-31 kts 17.7°c 1020.9 hPa 69% 0.0mm
04/06:30am SSE 27-33 kts 17.6°c 1020.5 hPa 67% 0.0mm
04/06:00am SSE 25-30 kts 17.6°c 1020.3 hPa 67% 0.0mm
04/05:30am SSE 25-31 kts 17.7°c 1020.0 hPa 66% 0.0mm
04/05:00am SSE 22-28 kts 17.9°c 1019.9 hPa 65% 0.0mm
04/04:30am SSE 21-27 kts 18.0°c 1019.9 hPa 61% 0.0mm
04/04:00am SSE 22-27 kts 18.2°c 1020.0 hPa 58% 0.0mm
04/03:30am SSE 23-27 kts 18.4°c 1019.9 hPa 56% 0.0mm
04/03:00am SSE 23-28 kts 19.0°c 1019.9 hPa 58% 0.0mm
04/02:30am SSE 24-29 kts 19.1°c 1019.9 hPa 54% 0.0mm
04/02:00am SSE 22-28 kts 19.2°c 1020.3 hPa 49% 0.0mm
04/01:30am SSE 20-25 kts 19.2°c 1020.5 hPa 49% 0.0mm
04/01:00am SE 20-25 kts 19.1°c 1021.0 hPa 52% 0.0mm
04/12:30am SE 22-28 kts 19.4°c 1021.2 hPa 47% 0.0mm
04/12:00am SSE 23-27 kts 19.6°c 1021.3 hPa 52% 0.0mm
Time Wind Speed Temp Pressure Rel. Hum Rain
03/11:30pm SE 20-24 kts 19.7°c 1021.3 hPa 49% 0.0mm
03/11:00pm SSE 18-23 kts 19.5°c 1021.4 hPa 47% 0.0mm
03/10:30pm SSE 17-21 kts 19.5°c 1021.5 hPa 46% 0.0mm
03/10:00pm SE 18-21 kts 19.5°c 1021.5 hPa 54% 0.0mm
03/09:30pm SE 17-21 kts 19.4°c 1021.5 hPa 56% 0.0mm
03/09:00pm SE 15-19 kts 19.1°c 1021.5 hPa 60% 0.0mm
03/08:30pm SE 14-17 kts 18.8°c 1021.3 hPa 64% 0.0mm
03/08:00pm SE 13-17 kts 19.1°c 1021.3 hPa 60% 0.0mm
03/07:30pm SE 13-16 kts 19.1°c 1021.1 hPa 59% 0.0mm
03/07:00pm SE 12-14 kts 18.8°c 1020.7 hPa 65% 0.0mm
03/06:30pm SE 12-14 kts 18.6°c 1020.3 hPa 66% 0.0mm
03/06:00pm ESE 13-15 kts 18.7°c 1020.2 hPa 69% 0.0mm
03/05:30pm SE 15-18 kts 18.6°c 1019.9 hPa 70% 0.0mm
03/05:00pm SE 15-18 kts 18.8°c 1019.8 hPa 69% 0.0mm
03/04:30pm SE 18-21 kts 19.0°c 1019.6 hPa 69% 0.0mm
03/04:00pm SE 15-19 kts 19.1°c 1019.6 hPa 69% 0.0mm
03/03:30pm SSE 18-23 kts 19.0°c 1019.5 hPa 64% 0.0mm
03/03:00pm SSE 19-24 kts 19.4°c 1019.5 hPa 68% 0.0mm
03/02:30pm SSE 20-24 kts 19.1°c 1019.9 hPa 64% 0.0mm
03/02:00pm SSE 19-25 kts 19.2°c 1019.9 hPa 64% 0.0mm
03/01:30pm SSE 20-26 kts 19.3°c 1020.0 hPa 62% 0.0mm
03/01:00pm SSE 21-25 kts 19.3°c 1020.2 hPa 63% 0.0mm
03/12:30pm SSE 21-26 kts 19.0°c 1020.6 hPa 60% 0.0mm
03/12:00pm SSE 22-27 kts 19.3°c 1021.0 hPa 65% 0.0mm
03/11:30am SSE 23-26 kts 19.1°c 1021.5 hPa 63% 0.0mm
03/11:00am SSE 23-28 kts 19.0°c 1021.7 hPa 61% 0.0mm
03/10:30am SSE 25-29 kts 19.0°c 1021.8 hPa 62% 0.0mm
03/10:00am SE 24-29 kts 18.9°c 1021.9 hPa 59% 0.0mm
03/09:30am SSE 25-30 kts 18.8°c 1022.1 hPa 60% 0.0mm
03/09:00am SSE 25-30 kts 18.7°c 1022.0 hPa 58% 0.2mm
03/08:30am SE 24-29 kts 18.9°c 1021.8 hPa 60% 0.2mm
03/08:00am SSE 24-30 kts 18.7°c 1021.4 hPa 59% 0.2mm
03/07:30am SSE 26-31 kts 18.8°c 1021.1 hPa 60% 0.2mm
03/07:00am SE 25-30 kts 18.8°c 1020.8 hPa 60% 0.2mm
03/06:30am SSE 25-29 kts 18.4°c 1020.4 hPa 57% 0.2mm
03/06:00am SSE 22-27 kts 18.7°c 1020.0 hPa 64% 0.2mm
03/05:30am SSE 23-27 kts 18.8°c 1019.7 hPa 58% 0.2mm
03/05:00am SSE 23-28 kts 19.0°c 1019.4 hPa 57% 0.2mm
03/04:30am SSE 22-27 kts 19.5°c 1019.3 hPa 54% 0.2mm
03/04:00am SSE 20-25 kts 19.8°c 1019.1 hPa 58% 0.2mm
03/03:30am SSE 21-26 kts 19.9°c 1019.2 hPa 62% 0.2mm
03/03:00am SSE 21-25 kts 20.0°c 1019.2 hPa 64% 0.2mm
03/02:30am SSE 21-25 kts 20.4°c 1019.3 hPa 67% 0.2mm
03/02:00am SSE 20-24 kts 20.5°c 1019.4 hPa 68% 0.2mm
03/01:30am SSE 19-23 kts 20.6°c 1019.8 hPa 71% 0.2mm
03/01:00am SSE 17-21 kts 20.7°c 1020.1 hPa 74% 0.2mm
03/12:30am SE 19-23 kts 21.5°c 1020.0 hPa 69% 0.2mm
03/12:00am SSE 17-20 kts 21.3°c 1020.1 hPa 79% 0.2mm